TimeEDT,TemperatureF,Dew PointF,Humidity,Sea Level PressureIn,VisibilityMPH,Wind Direction,Wind SpeedMPH,Gust SpeedMPH,PrecipitationIn,Events,Conditions,WindDirDegrees,DateUTC
12:53 AM,33.1,10.0,38,30.41,10.0,Calm,Calm,-,N/A,,Clear,0,2013-04-04 04:53:00
1:53 AM,30.0,12.9,49,30.41,10.0,Calm,Calm,-,N/A,,Clear,0,2013-04-04 05:53:00
2:53 AM,28.0,12.9,53,30.40,10.0,Calm,Calm,-,N/A,,Clear,0,2013-04-04 06:53:00
3:53 AM,27.0,15.1,61,30.39,10.0,Calm,Calm,-,N/A,,Clear,0,2013-04-04 07:53:00
4:53 AM,27.0,16.0,63,30.36,10.0,NE,3.5,-,N/A,,Clear,50,2013-04-04 08:53:00
5:53 AM,27.0,16.0,63,30.34,10.0,Calm,Calm,-,N/A,,Clear,0,2013-04-04 09:53:00
6:53 AM,28.0,15.1,58,30.33,10.0,Calm,Calm,-,N/A,,Clear,0,2013-04-04 10:53:00
7:53 AM,30.0,15.1,54,30.32,10.0,East,5.8,-,N/A,,Clear,80,2013-04-04 11:53:00
8:53 AM,32.0,12.0,44,30.30,10.0,East,9.2,-,N/A,,Clear,80,2013-04-04 12:53:00
9:53 AM,35.1,12.9,40,30.28,10.0,East,4.6,-,N/A,,Clear,90,2013-04-04 13:53:00
10:53 AM,39.9,12.9,33,30.27,10.0,Variable,4.6,-,N/A,,Clear,0,2013-04-04 14:53:00
11:53 AM,46.0,15.1,29,30.21,10.0,NE,8.1,-,N/A,,Clear,50,2013-04-04 15:53:00
12:53 PM,50.0,14.0,24,30.18,10.0,Variable,3.5,-,N/A,,Clear,0,2013-04-04 16:53:00
1:53 PM,51.1,12.9,22,30.17,10.0,SSE,8.1,-,N/A,,Clear,150,2013-04-04 17:53:00
2:53 PM,52.0,12.9,21,30.13,10.0,South,4.6,-,N/A,,Clear,170,2013-04-04 18:53:00
3:53 PM,54.0,15.1,22,30.10,10.0,South,5.8,-,N/A,,Clear,170,2013-04-04 19:53:00
4:53 PM,54.0,17.1,23,30.08,10.0,South,5.8,-,N/A,,Clear,180,2013-04-04 20:53:00
5:53 PM,53.1,17.1,24,30.08,10.0,SSW,4.6,-,N/A,,Clear,200,2013-04-04 21:53:00
6:53 PM,53.1,16.0,23,30.06,10.0,South,5.8,-,N/A,,Clear,170,2013-04-04 22:53:00
7:53 PM,51.1,16.0,25,30.06,10.0,SSE,6.9,-,N/A,,Clear,160,2013-04-04 23:53:00
8:53 PM,48.9,17.1,28,30.06,10.0,SSE,5.8,-,N/A,,Clear,160,2013-04-05 00:53:00
9:53 PM,48.0,18.0,30,30.06,10.0,SSE,3.5,-,N/A,,Clear,160,2013-04-05 01:53:00
10:53 PM,46.9,19.9,34,30.04,10.0,South,3.5,-,N/A,,Clear,170,2013-04-05 02:53:00
11:53 PM,45.0,24.1,44,30.04,10.0,South,4.6,-,N/A,,Clear,170,2013-04-05 03:53:00